This is the latest recevied weather packets stored in our database for station/object IZ8QAD-10. If no packets are shown the sender has not sent any weather packets the latest 10 day(s).
| Time | Temp. | Humidity | Pressure | Rain* | Wind** | Luminosity | Snow |
|---|---|---|---|---|---|---|---|
| 1777672330 | 25° C | 25% | 975 hPa | - | - | - | - |
| 1777670530 | 25° C | 25% | 975.1 hPa | - | - | - | - |
| 1777668729 | 25.56° C | 25% | 975 hPa | - | - | - | - |
| 1777666929 | 25.56° C | 26% | 974.7 hPa | - | - | - | - |
| 1777665129 | 25.56° C | 25% | 974.6 hPa | - | - | - | - |
| 1777663329 | 25.56° C | 25% | 974.4 hPa | - | - | - | - |
| 1777661529 | 25.56° C | 26% | 974.3 hPa | - | - | - | - |
| 1777659728 | 25.56° C | 26% | 973.9 hPa | - | - | - | - |
| 1777657930 | 25.56° C | 25% | 973.7 hPa | - | - | - | - |
| 1777656128 | 25° C | 23% | 973.2 hPa | - | - | - | - |
| 1777654328 | 25° C | 23% | 973.2 hPa | - | - | - | - |
| 1777652528 | 25° C | 23% | 972.8 hPa | - | - | - | - |
| 1777650727 | 25.56° C | 29% | 972.8 hPa | - | - | - | - |
| 1777648927 | 25.56° C | 30% | 972.6 hPa | - | - | - | - |
| 1777647127 | 25.56° C | 30% | 973.1 hPa | - | - | - | - |
| 1777645326 | 25° C | 30% | 973 hPa | - | - | - | - |
| 1777643526 | 25° C | 30% | 973.3 hPa | - | - | - | - |
| 1777641726 | 25° C | 29% | 973.5 hPa | - | - | - | - |
| 1777639926 | 24.44° C | 26% | 973.4 hPa | - | - | - | - |
| 1777638126 | 24.44° C | 26% | 973.3 hPa | - | - | - | - |
| 1777636326 | 24.44° C | 32% | 973.8 hPa | - | - | - | - |
| 1777634525 | 24.44° C | 31% | 973.9 hPa | - | - | - | - |
| 1777632725 | 24.44° C | 29% | 973.8 hPa | - | - | - | - |
| 1777630925 | 24.44° C | 29% | 973.8 hPa | - | - | - | - |
| 1777629125 | 24.44° C | 32% | 973.8 hPa | - | - | - | - |
* Rain since midnight (hover to see other rain measurements)
** Current wind speed in m/s (hover to see current wind gust speed)